Weather History for Blythe, CA

Change the Weather History Date:

Tuesday, April 9, 2013

  Actual Average Record
Temperature  
Mean Temperature 68 °F -  
Max Temperature 79 °F 80 °F 102 °F (1989)
Min Temperature 59 °F 52 °F 41 °F (1998)
Cooling Degree Days 4    
Growing Degree Days 18 (Base 50)    
Moisture  
Dew Point 19 °F    
Average Humidity 15    
Maximum Humidity 24    
Minimum Humidity 10    
Precipitation  
Precipitation 0.00 in - - ()
Sea Level Pressure  
Sea Level Pressure 29.76 in    
Wind  
Wind Speed 15 mph (NW)    
Max Wind Speed 23 mph    
Max Gust Speed 34 mph    
Visibility 10 miles    
Events      
Averages and records for this station are not official NWS values.
T = Trace of Precipitation, MM = Missing Value Source: NWS Daily Summary

Daily Weather History Graph

Daily Weather History Graph

Search for Another Location

Airport:

Trip Planner

Search our weather history database for the weather conditions in past years. The results will help you decide how hot, cold, wet, or windy it might be!

Date:

Astronomy

Apr. 09, 2013 Rise Set
Actual Time 6:15 AM PDT 7:05 PM PDT
Civil Twilight 5:50 AM PDT 7:31 PM PDT
Nautical Twilight 5:20 AM PDT 8:01 PM PDT
Astronomical Twilight 4:49 AM PDT 8:31 PM PDT
Moon 5:39 AM PDT (4/9) 6:44 PM PDT (4/9)
Length of Visible Light 13h 40m
Length of Day
12h 50m
Waning Crescent, 0% of the Moon is Illuminated
Apr 9
Waning Crescent
Apr 10
New
Apr 18
First Quarter
Apr 25
Full
May 2
Last Quarter

Hourly Weather History & Observations

Time (PDT) Temp. Dew Point Humidity Pressure Visibility Wind Dir Wind Speed Gust Speed Precip Events Conditions
12:52 AM 64.9 °F 27.0 °F 24% 29.62 in 10.0 mi West 13.8 mph - N/A   Clear
1:52 AM 64.9 °F 24.1 °F 21% 29.62 in 10.0 mi WNW 23.0 mph 34.5 mph N/A   Clear
2:52 AM 64.0 °F 21.0 °F 19% 29.63 in 10.0 mi NW 21.9 mph 27.6 mph N/A   Clear
3:52 AM 63.0 °F 21.0 °F 20% 29.65 in 10.0 mi NW 20.7 mph 28.8 mph N/A   Clear
4:52 AM 61.0 °F 19.9 °F 21% 29.67 in 10.0 mi NW 15.0 mph - N/A   Clear
5:52 AM 60.1 °F 19.9 °F 21% 29.69 in 10.0 mi NNW 13.8 mph - N/A   Clear
6:52 AM 59.0 °F 19.9 °F 22% 29.73 in 10.0 mi NW 3.5 mph - N/A   Clear
7:52 AM 64.9 °F 19.0 °F 17% 29.75 in 10.0 mi NW 16.1 mph - N/A   Clear
8:52 AM 66.9 °F 19.0 °F 16% 29.76 in 10.0 mi NNW 23.0 mph 33.4 mph N/A   Clear
9:52 AM 69.1 °F 19.0 °F 15% 29.78 in 10.0 mi NNW 23.0 mph 29.9 mph N/A   Clear
10:52 AM 71.1 °F 19.9 °F 14% 29.79 in 10.0 mi NNW 18.4 mph 29.9 mph N/A   Clear
11:52 AM 73.0 °F 19.9 °F 14% 29.79 in 10.0 mi NNW 12.7 mph 28.8 mph N/A   Clear
12:52 PM 75.0 °F 19.9 °F 13% 29.78 in 10.0 mi NNW 16.1 mph 26.5 mph N/A   Clear
1:52 PM 75.0 °F 19.0 °F 12% 29.77 in 10.0 mi NW 10.4 mph 26.5 mph N/A   Clear
2:52 PM 75.9 °F 18.0 °F 11% 29.76 in 10.0 mi NNW 12.7 mph 25.3 mph N/A   Clear
3:52 PM 78.1 °F 18.0 °F 10% 29.75 in 10.0 mi NNW 16.1 mph 25.3 mph N/A   Clear
4:52 PM 77.0 °F 17.1 °F 10% 29.75 in 10.0 mi WNW 13.8 mph - N/A   Clear
5:52 PM 77.0 °F 16.0 °F 10% 29.76 in 10.0 mi NNW 15.0 mph 21.9 mph N/A   Clear
6:52 PM 75.0 °F 15.1 °F 10% 29.77 in 10.0 mi NW 13.8 mph - N/A   Clear
7:52 PM 72.0 °F 15.1 °F 11% 29.79 in 10.0 mi NW 5.8 mph - N/A   Clear
8:52 PM 71.1 °F 14.0 °F 11% 29.82 in 10.0 mi North 6.9 mph - N/A   Clear
9:52 PM 64.0 °F 14.0 °F 14% 29.86 in 10.0 mi NNW 4.6 mph - N/A   Clear
10:52 PM 66.0 °F 19.9 °F 17% 29.91 in 10.0 mi North 9.2 mph - N/A   Clear
11:52 PM 66.9 °F 21.0 °F 17% 29.94 in 10.0 mi North 13.8 mph - N/A   Clear